• Join FlightAware (Why Join?)
  • Login
  • US Flag 
06:56AM EST


 

Airport Tracker/Info


-or-


 

Live Flight TrackerFlight Track Log ✈ N1926A ✈ 25-Apr-2014 ✈ KMSP - 41A

Flight Track Log - Related Links

Times and Time Zones

All times are in EDT time to prevent confusion due to time zone crossing. See the N1926A flight status page for this flight to view local times or setup timezone preferences in your user account.

Time Position Orientation Groundspeed Altitude Reporting Facility
EDT Latitude Longitude Course Direction KTS MPH feet Rate Location/Type
11:18AM 44.8833 -93.2833 245° Southwest 166 191 3,000  Level Minneapolis TRACON
11:19AM 44.8667 -93.3333 245° Southwest 167 192 4,800 1,500 Climbing Minneapolis TRACON
11:20AM 44.8333 -93.3833 227° Southwest 206 237 6,100 1,380 Climbing Minneapolis TRACON
11:21AM 44.7833 -93.4333 215° Southwest 209 241 7,600 1,440 Climbing Minneapolis TRACON
11:22AM 44.7486 -93.4272 173° South 225 259 8,300 1,500 Climbing Minneapolis Center
11:23AM 44.6853 -93.4069 167° South 235 270 9,900 1,440 Climbing Minneapolis Center
11:24AM 44.6217 -93.3819 164° South 238 274 11,300 1,020 Climbing Minneapolis Center
11:25AM 44.5722 -93.3050 132° Southeast 268 308 12,100 360 Climbing Minneapolis Center
11:26AM 44.5011 -93.2047 135° Southeast 307 353 12,100 240 Level Minneapolis Center
11:27AM 44.4383 -93.1200 136° Southeast 313 360 12,600 600 Climbing Minneapolis Center
11:28AM 44.3769 -93.0406 137° Southeast 309 356 13,400 720 Climbing Minneapolis Center
11:29AM 44.3131 -92.9647 140° Southeast 304 350 14,100 660 Climbing Minneapolis Center
11:30AM 44.2436 -92.9061 149° Southeast 292 336 14,800 720 Climbing Minneapolis Center
11:31AM 44.1739 -92.8533 151° Southeast 289 333 15,700 1,020 Climbing Minneapolis Center
11:32AM 44.1042 -92.8067 154° Southeast 285 328 17,000 1,560 Climbing Minneapolis Center
11:33AM 44.0247 -92.7567 156° South 268 308 18,900 1,500 Climbing Minneapolis Center
11:34AM 43.9567 -92.7183 158° South 265 305 20,100 1,080 Climbing Minneapolis Center
11:35AM 43.8869 -92.6781 157° South 268 308 21,200 1,080 Climbing Minneapolis Center
11:36AM 43.8183 -92.6319 154° Southeast 271 312 22,400 1,080 Climbing Minneapolis Center
11:37AM 43.7439 -92.5808 154° Southeast 272 313 23,500 960 Climbing Minneapolis Center
11:38AM 43.6750 -92.5592 167° South 262 302 24,400 720 Climbing Minneapolis Center
11:39AM 43.6103 -92.5053 149° Southeast 270 311 25,000 240 Climbing Minneapolis Center
11:40AM 43.5236 -92.4400 151° Southeast 292 336 25,000  Level Chicago Center
11:41AM 43.4492 -92.3817 150° Southeast 302 348 25,000  Level Chicago Center
11:42AM 43.3750 -92.3231 150° Southeast 308 354 25,000  Level Minneapolis Center
11:43AM 43.2992 -92.2681 152° Southeast 308 354 25,000  Level Minneapolis Center
11:44AM 43.2236 -92.2147 153° Southeast 308 354 25,000  Level Minneapolis Center
11:45AM 43.1469 -92.1606 153° Southeast 309 356 25,000  Level Minneapolis Center
11:46AM 43.0703 -92.1053 152° Southeast 310 357 25,000  Level Minneapolis Center
11:47AM 42.9928 -92.0511 153° Southeast 314 361 25,000  Level Minneapolis Center
11:48AM 42.8992 -91.9886 154° Southeast 314 361 25,000  Level Minneapolis Center
11:49AM 42.8200 -91.9394 156° South 314 361 25,000  Level Minneapolis Center
11:50AM 42.7419 -91.8892 155° Southeast 314 361 25,000  Level Minneapolis Center
11:51AM 42.6644 -91.8386 154° Southeast 314 361 25,000  Level Minneapolis Center
11:52AM 42.5869 -91.7864 154° Southeast 315 362 25,000  Level Minneapolis Center
11:54AM 42.4939 -91.7217 153° Southeast 315 362 25,000  Level Minneapolis Center
11:55AM 42.4164 -91.6667 152° Southeast 315 362 25,000  Level Minneapolis Center
11:56AM 42.3383 -91.6106 152° Southeast 316 364 25,000  Level Minneapolis Center
11:57AM 42.2603 -91.5556 152° Southeast 316 364 25,000  Level Minneapolis Center
11:58AM 42.1825 -91.5042 154° Southeast 316 364 25,000  Level Minneapolis Center
11:59AM 42.0889 -91.4428 154° Southeast 316 364 25,000  Level Minneapolis Center
12:00PM 42.0106 -91.3933 155° Southeast 316 364 25,000  Level Minneapolis Center
12:01PM 41.9158 -91.3275 153° Southeast 314 361 25,000  Level Chicago Center
12:02PM 41.8389 -91.2794 155° Southeast 309 356 25,000  Level Chicago Center
12:03PM 41.7628 -91.2272 153° Southeast 309 356 25,000  Level Chicago Center
12:04PM 41.6703 -91.1658 154° Southeast 309 356 25,000  Level Chicago Center
12:05PM 41.5944 -91.1144 153° Southeast 309 356 25,000  Level Chicago Center
12:06PM 41.5192 -91.0625 153° Southeast 308 354 25,000  Level Chicago Center
12:07PM 41.4333 -91.0069 154° Southeast 308 354 25,000  Level Chicago Center
12:08PM 41.3578 -90.9547 153° Southeast 308 354 25,000  Level Chicago Center
12:09PM 41.2811 -90.9058 154° Southeast 307 353 25,000  Level Chicago Center
12:10PM 41.2044 -90.8561 154° Southeast 308 354 25,000  Level Chicago Center
12:11PM 41.1289 -90.8072 154° Southeast 304 350 25,000  Level Chicago Center
12:12PM 41.0528 -90.7583 154° Southeast 304 350 25,000  Level Chicago Center
12:13PM 40.9625 -90.6994 154° Southeast 304 350 25,000  Level Chicago Center
12:14PM 40.8869 -90.6517 154° Southeast 304 350 25,000  Level Chicago Center
12:15PM 40.8103 -90.6028 154° Southeast 304 350 25,000  Level Chicago Center
12:16PM 40.7333 -90.5528 154° Southeast 306 352 25,000  Level Chicago Center
12:17PM 40.6578 -90.5039 154° Southeast 306 352 25,000  Level Chicago Center
12:18PM 40.5828 -90.4553 154° Southeast 306 352 25,000  Level Chicago Center
12:20PM 40.4922 -90.3981 154° Southeast 305 351 25,000  Level Chicago Center
12:21PM 40.4153 -90.3483 154° Southeast 306 352 25,000  Level Chicago Center
12:22PM 40.3406 -90.3008 154° Southeast 305 351 25,000  Level Chicago Center
12:23PM 40.2647 -90.2528 154° Southeast 305 351 25,000  Level Chicago Center
12:24PM 40.1883 -90.2053 155° Southeast 305 351 25,000  Level Chicago Center
12:25PM 40.1128 -90.1544 153° Southeast 305 351 25,000  Level Kansas City Center
12:26PM 40.0364 -90.1078 155° Southeast 305 351 25,000  Level Kansas City Center
12:27PM 39.9597 -90.0606 155° Southeast 305 351 25,000  Level Kansas City Center
12:28PM 39.8678 -90.0017 154° Southeast 305 351 25,000  Level Kansas City Center
12:29PM 39.7908 -89.9544 155° Southeast 305 351 25,000  Level Kansas City Center
12:30PM 39.7144 -89.9069 154° Southeast 305 351 25,000  Level Kansas City Center
12:31PM 39.6317 -89.8572 155° Southeast 305 351 25,000  Level Kansas City Center
12:32PM 39.5550 -89.8081 154° Southeast 305 351 25,000  Level Kansas City Center
12:33PM 39.4775 -89.7611 155° Southeast 305 351 25,000  Level Kansas City Center
12:34PM 39.3997 -89.7150 155° Southeast 305 351 25,000  Level Kansas City Center
12:35PM 39.3225 -89.6672 154° Southeast 306 352 25,000  Level Kansas City Center
12:36PM 39.2447 -89.6189 154° Southeast 306 352 25,000  Level Kansas City Center
12:37PM 39.1533 -89.5622 154° Southeast 310 357 25,000  Level Kansas City Center
12:38PM 39.0742 -89.5133 154° Southeast 311 358 25,000  Level Kansas City Center
12:39PM 38.9953 -89.4653 155° Southeast 311 358 25,000  Level Kansas City Center
12:40PM 38.9181 -89.4169 154° Southeast 311 358 25,000  Level Kansas City Center
12:41PM 38.8294 -89.3625 154° Southeast 311 358 25,000  Level Kansas City Center
12:42PM 38.7442 -89.3108 155° Southeast 313 360 25,000  Level Kansas City Center
12:43PM 38.6611 -89.2642 156° South 313 360 25,000  Level Kansas City Center
12:44PM 38.5858 -89.2175 154° Southeast 313 360 25,000  Level Kansas City Center
12:45PM 38.5058 -89.1703 155° Southeast 313 360 25,000  Level Kansas City Center
12:46PM 38.4264 -89.1233 155° Southeast 313 360 25,000  Level Kansas City Center
12:47PM 38.3450 -89.0753 155° Southeast 313 360 25,000  Level Kansas City Center
12:48PM 38.2661 -89.0269 154° Southeast 314 361 25,000  Level Kansas City Center
12:49PM 38.1892 -88.9775 153° Southeast 313 360 25,000  Level Kansas City Center
12:50PM 38.0933 -88.9219 155° Southeast 313 360 25,000  Level Kansas City Center
12:51PM 38.0142 -88.8764 156° South 313 360 25,000  Level Kansas City Center
12:53PM 37.9347 -88.8322 156° South 313 360 25,000  Level Kansas City Center
12:54PM 37.8547 -88.7869 156° South 313 360 25,000  Level Kansas City Center
12:55PM 37.7669 -88.7339 154° Southeast 313 360 25,000  Level Kansas City Center
12:56PM 37.6814 -88.6836 155° Southeast 313 360 25,000  Level Kansas City Center
12:57PM 37.6014 -88.6367 155° Southeast 314 361 25,000  Level Kansas City Center
12:58PM 37.5219 -88.5903 155° Southeast 314 361 25,000  Level Kansas City Center
12:59PM 37.4481 -88.5472 155° Southeast 314 361 25,000  Level Kansas City Center
01:00PM 37.3528 -88.4906 155° Southeast 314 361 25,000  Level Kansas City Center
01:01PM 37.2739 -88.4458 156° South 314 361 25,000  Level Kansas City Center
01:02PM 37.1756 -88.3881 155° Southeast 315 362 25,000  Level Memphis Center
01:03PM 37.0786 -88.3342 156° South 315 362 25,000  Level Memphis Center
01:04PM 36.9989 -88.2897 156° South 315 362 25,000  Level Memphis Center
01:05PM 36.9189 -88.2436 155° Southeast 315 362 25,000  Level Memphis Center
01:06PM 36.8375 -88.1981 156° South 316 364 25,000  Level Memphis Center
01:07PM 36.7572 -88.1519 155° Southeast 316 364 25,000  Level Memphis Center
01:08PM 36.6642 -88.0983 155° Southeast 316 364 25,000  Level Memphis Center
01:09PM 36.5842 -88.0533 156° South 316 364 25,000  Level Memphis Center
01:10PM 36.5044 -88.0056 154° Southeast 316 364 25,000  Level Memphis Center
01:11PM 36.4242 -87.9594 155° Southeast 316 364 25,000  Level Memphis Center
01:12PM 36.3442 -87.9144 156° South 316 364 25,000  Level Memphis Center
01:14PM 36.2647 -87.8686 155° Southeast 315 362 25,000  Level Memphis Center
01:15PM 36.1844 -87.8256 157° South 315 362 25,000  Level Memphis Center
01:16PM 36.0911 -87.7761 157° South 314 361 25,000  Level Memphis Center
01:17PM 36.0086 -87.7381 160° South 314 361 25,000  Level Memphis Center
01:18PM 35.9267 -87.6972 158° South 315 362 25,000  Level Memphis Center
01:19PM 35.8442 -87.6519 156° South 316 364 25,000  Level Memphis Center
01:20PM 35.7661 -87.6036 153° Southeast 316 364 25,000  Level Memphis Center
01:21PM 35.6883 -87.5522 152° Southeast 316 364 25,000  Level Memphis Center
01:22PM 35.5964 -87.4967 154° Southeast 316 364 25,000  Level Memphis Center
01:23PM 35.5172 -87.4500 154° Southeast 315 362 25,000  Level Memphis Center
01:24PM 35.4386 -87.4075 156° South 312 359 25,000  Level Memphis Center
01:25PM 35.3617 -87.3700 158° South 310 357 25,000  Level Memphis Center
01:26PM 35.2817 -87.3306 158° South 310 357 25,000  Level Memphis Center
01:27PM 35.1869 -87.2822 157° South 309 356 25,000  Level Memphis Center
01:28PM 35.1072 -87.2403 157° South 309 356 25,000  Level Memphis Center
01:29PM 35.0289 -87.1967 155° Southeast 309 356 25,000  Level Memphis Center
01:30PM 34.9494 -87.1533 156° South 309 356 25,000  Level Memphis Center
01:31PM 34.8703 -87.1086 155° Southeast 310 357 25,000  Level Memphis Center
01:32PM 34.7906 -87.0633 155° Southeast 311 358 25,000  Level Memphis Center
01:33PM 34.7108 -87.0192 156° South 311 358 25,000  Level Memphis Center
01:34PM 34.6150 -86.9675 156° South 311 358 25,000  Level Memphis Center
01:35PM 34.5356 -86.9256 156° South 311 358 25,000  Level Memphis Center
01:36PM 34.4567 -86.8853 157° South 311 358 25,000  Level Memphis Center
01:37PM 34.3781 -86.8447 157° South 310 357 25,000  Level Memphis Center
01:38PM 34.2994 -86.8036 157° South 310 357 25,000  Level Memphis Center
01:39PM 34.2217 -86.7619 156° South 308 354 25,000  Level Memphis Center
01:40PM 34.1283 -86.7122 156° South 307 353 25,000  Level Memphis Center
01:41PM 34.0500 -86.6700 156° South 307 353 25,000  Level Memphis Center
01:42PM 33.9728 -86.6272 155° Southeast 307 353 25,000  Level Memphis Center
01:43PM 33.9367 -86.6078 156° South 314 361 25,000 -480 Level Atlanta Center
01:44PM 33.8539 -86.5678 158° South 314 361 24,300 -780 Descending Atlanta Center
01:45PM 33.7733 -86.5278 158° South 314 361 23,500 -1,200 Descending Atlanta Center
01:46PM 33.6886 -86.4831 156° South 319 367 21,900 -1,560 Descending Atlanta Center
01:47PM 33.6039 -86.4406 157° South 325 374 20,400 -1,740 Descending Atlanta Center
01:48PM 33.5108 -86.3883 155° Southeast 331 381 18,500 -1,740 Descending Atlanta Center
01:49PM 33.4283 -86.3461 157° South 331 381 17,000 -1,500 Descending Atlanta Center
01:50PM 33.3436 -86.3017 156° South 331 381 15,600 -1,680 Descending Atlanta Center
01:51PM 33.2608 -86.2572 156° South 331 381 13,700 -1,800 Descending Atlanta Center
01:52PM 33.1781 -86.2156 157° South 331 381 12,000 -1,320 Descending Atlanta Center
01:53PM 33.1036 -86.1764 156° South 331 381 11,100 4,320 Descending Atlanta Center
01:55PM 32.9442 -86.0983 158° South 331 381 25,000 4,620 Climbing Atlanta Center
01:56PM 32.8986 -86.0750 157° South 331 381 25,000  Level Atlanta Center
02:04PM 32.7937 -86.0141 161° South  Level FlightAware Approximate
02:11PM 32.5149 -85.8762 157° South  Level Estimated
02:12PM 32.5149 -85.8762 157° South  Level Estimated